Regional Weather Roundup
Issued by NWS

Home | Current Version | Previous Version | Graphics & Text | Print | Product List | Glossary On
Versions: 1 2 3 4 5 6 7 8 9 10 11 12 13 14 15 16 17 18 19 20 21 22 23 24 25 26 27 28 29 30 31 32 33 34 35 36 37 38 39 40 41 42 43 44 45 46 47 48 49 50
000
ASUS43 KOAX 211402
RWRNE

WEATHER ROUNDUP FOR NEBRASKA
NATIONAL WEATHER SERVICE OMAHA NE
800 AM CST WED FEB 21 2018

NOTES: SATELLITE DATA IS BEING USED TO AUGMENT CLOUD COVER ABOVE
       12000 FEET.
       "FAIR" INDICATES FEW OR NO CLOUDS BELOW 12,000 FEET WITH NO
       SIGNIFICANT WEATHER AND/OR OBSTRUCTIONS TO VISIBILITY.


NEZ001>004-019>022-054>056-211500-
NEBRASKA PANHANDLE

CITY           SKY/WX    TMP DP  RH WIND       PRES   REMARKS
SCOTTSBLUFF    CLEAR    -10 -16  74 N3        30.28R
ALLIANCE       CLEAR    -18 -22  82 NW5       30.25R FOG     WCI -31
CHADRON        PTCLDY   -19 -27  66 S7        30.31R WCI -36
GORDON         FAIR     -11 -16  80 SW3       30.27S
KIMBALL        CLEAR      3  -4  71 SW5       30.21R WCI  -6
SIDNEY         CLEAR     -7 -12  79 SW9       30.27R WCI -24
$$

NEZ057>060-069>072-079>082-211500-
SOUTHWEST NEBRASKA

CITY           SKY/WX    TMP DP  RH WIND       PRES   REMARKS
NORTH PLATTE   CLEAR     -6 -11  79 SE5       30.43R WCI -17
IMPERIAL       CLEAR     -5  -9  83 CALM      30.38R
LEXINGTON      CLEAR      5   0  79 CALM      30.48R
MCCOOK         CLEAR      2  -1  88 S5        30.48R WCI  -8
OGALLALA       CLEAR     -4  -8  81 W8        30.37R WCI -19
$$

NEZ005>010-023>029-035>040-094-211500-
NORTH CENTRAL NEBRASKA

CITY           SKY/WX    TMP DP  RH WIND       PRES   REMARKS
VALENTINE      CLEAR    -13 -19  75 SW8       30.41R WCI -30
AINSWORTH      CLEAR     -4 -10  78 SW3       30.41R
BROKEN BOW     CLEAR     -4  -9  79 CALM      30.45R
O`NEILL        CLEAR     -8 -13  80 S6        30.48R WCI -22
THEDFORD       CLEAR     -7 -12  79 CALM      30.39R
$$

NEZ041-046>049-061>064-073>077-083>087-211500-
SOUTH CENTRAL NEBRASKA

CITY           SKY/WX    TMP DP  RH WIND       PRES   REMARKS
GRAND ISLAND   CLOUDY     5  -1  76 CALM      30.54R
AURORA         CLOUDY     2  -3  81 CALM      30.54S
HASTINGS       CLOUDY     2  -3  80 CALM      30.53R
HEBRON         CLOUDY     8   2  78 NE3       30.58R
HOLDREGE       CLOUDY     3  -1  85 SE5       30.51R WCI  -7
KEARNEY        CLOUDY     3  -1  83 SE3       30.52R
YORK           CLOUDY     1   0  92 CALM      30.56S
$$

NEZ011>018-030>034-042>045-211500-
NORTHEAST NEBRASKA

CITY           SKY/WX    TMP DP  RH WIND       PRES   REMARKS
NORFOLK        CLOUDY     0  -4  83 CALM      30.56R
ALBION         CLOUDY     1  -5  78 CALM      30.55R
BLAIR          CLOUDY     8   3  82 N5        30.58S WCI  -1
COLUMBUS       CLEAR      3  -1  83 CALM      30.59R
FREMONT        CLOUDY     7   1  76 CALM      30.61R
TEKAMAH        CLEAR      5   2  87 CALM      30.63R
WAYNE          CLOUDY     0  -4  82 S5        30.58R WCI -10
$$

NEZ050>053-065>068-078-088>093-211500-
SOUTHEAST NEBRASKA

CITY           SKY/WX    TMP DP  RH WIND       PRES   REMARKS
LINCOLN        CLOUDY     8   1  73 N6        30.61S WCI  -2
OMAHA EPPLEY   CLOUDY     9   4  80 N5        30.62S WCI   1
BEATRICE       CLOUDY    10   5  79 N8        30.59R WCI  -2
FALLS CITY     CLOUDY    12   5  73 N12       30.59R WCI  -2
NEBRASKA CITY  CLOUDY    10   8  88 N9        30.60R WCI  -2
PLATTSMOUTH    CLOUDY    10   5  80 N3        30.60R
$$

NEZ044-045-051>053-067-211500-
OMAHA AREA

CITY           SKY/WX    TMP DP  RH WIND       PRES   REMARKS
OMAHA EPPLEY   CLOUDY     9   4  80 N5        30.62S WCI   1
BLAIR          CLOUDY     8   3  82 N5        30.58S WCI  -1
FREMONT        CLOUDY     7   1  76 CALM      30.61R
MILLARD        CLOUDY    11   3  71 N3        30.62S
OFFUTT AFB     CLOUDY    10   3  74 N5        30.61R WCI   1
PLATTSMOUTH    CLOUDY    10   5  80 N3        30.60R
WAHOO          FAIR       7   1  78 CALM      30.61S
$$




USA.gov is the U.S. government's official web portal to all federal, state and local government web resources and services.